SCP
0 0 0 0 0 0 0 0 0 0 0 0 0 0 0 0 0 0 0 0 0 0 0 0 0 0 0 0 0 0 0 0 0 0 0 0 0 0
0 0 0 0 0 0 0 0 0 0 0 0 0 0 0 0 0 0 0 0 0 -0 0 0 0 0 0 0 0 0 0 0 0 0 0 0 0 0
0 0 0 0 0 0 0 0 0 0 0 0 0 0 0 0 0 0 0 0 0 0 0 0 0 0 0 0 0 0 0 0 0 0 0 0 0 0
0 0 0 0 0 0 0 0 0 0 0 0 0 0 0 0 0 0 0 0 0 0 -0 0 0 0 0 0 0 0 0 0 0 0 0 0 0 0
0 0 0 0 0 0 0 0 0 0 0 0 0 0 0 0 0 0 0 0 0 0 0 0 0 0 0 0 0 0 0 0 0 0 0 0 0 0
0 0 0 0 0 0 0 0 0 0 0 0 0 0 0 0 0 0 0 0 0 0 0 0 0 0 0 0 0 0 0 0 0 0 0 0 0 0
0 0 0 0 0 0 0 0 0 0 0 0 0 0 0 0 0 0 0 0 0 -0 -0 0 0 0 0 0 0 0 0 0 0 0 0 0 0 0
0 0 0 0 0 0 0 0 0 0 0 0 0 0 0 0 0 0 0 0 0 0 0 0 0 0 0 0 0 0 0 0 0 0 0 0 0 0
0 0 0 0 0 0 0 0 0 0 0 0 0 0 0 0 0 0 0 0 0 0 0 0 0 0 0 0 0 0 -0 -0 0 0 0 0 0 0
0 0 0 0 0 0 0 0 0 0 0 0 0 0 0 0 0 0 0 -0 0 0 0 0 0 0 0 0 0 0 0 0 0 0 0 0 0 0
0 0 0 0 0 0 0 0 0 0 0 0 0 0 0 0 0 0 -0 -0 -0 0 0 0 0 0 0 0 -0 0 0 0 0 0 0 0 0 0
0 0 0 0 0 0 0 0 0 0 0 0 0 0 0 0 0 0 -0 -0 -0 0 0 0 0 0 0 0 0 -0 -0 0 0 0 0 0 0 0
0 0 0 0 0 0 0 0 0 0 0 0 0 0 0 0 0 0 -0 0 0 0 0 0 0 0 0 0 0 -0 0 0 0 0 0 -0 -0 0
0 0 0 0 0 0 0 0 0 0 0 0 0 0 0 0 0 0 0 -0 0 -0 0 0 0 0 0 0 0 0 0 0 0 0 0 0 -0 -0
0 0 0 0 0 0 0 0 0 0 0 0 0 0 0 0 0 -0 0 -0 0 -0 0 0 0 0 0 0 0 0 0 0 0 0 0 0 0 0
0 0 0 0 0 0 0 0 0 0 0 0 0 0 0 0 0 0 0 -0 0 0 0 -0 0 0 0 0 0 0 0 0 0 0 0 0 0 0
0 0 0 0 0 0 0 0 0 0 0 0 0 0 0 0 0 0 0 0 0 0 0 0 0 0 0 0 0 0 0 0 0 0 0 0 0 0
0 0 0 0 0 0 0 0 0 0 0 0 0 0 0 0 0 0 0 0 0 0 0 0 0 0 0 0 -0 0 0 0 0 0 0 0 0 -0
0 0 0 0 0 0 0 0 0 0 -0 0 0 0 0 0 0 0 0 0 0 0 0 0 0 0 0 0 0 0 0 0 0 0 0 0 -0 -0
0 0 0 0 0 0 0 0 0 0 -0 0 0 0 0 0 0 0 0 0 0 0 0 0 0 0 0 0 0 0 0 0 0 0 0 0 0 0
0 0 0 0 0 0 0 0 0 0 0 -0 -0 0 0 0 0 0 0 0 0 0 0 0 0 0 0 0 0 0 0 0 0 0 0 0 0 0
0 0 0 0 0 0 0 0 0 0 0 0 0 0 0 0 0 0 0 0 0 0 0 0 0 0 0 0 0 0 0 0 0 -0 -0 -0 0 -0
0 0 0 0 0 0 0 0 0 0 0 0 0 0 0 0 0 0 0 0 0 0 0 0 0 0 0 0 0 0 0 0 0 -0 -0 -0 -0 -0
Wind_Speed_500mb
32 39 41 40 50 40 51 47 53 61 54 49 44 58 55 52 56 51 59 53 56 52 57 65 59 57 51 51 49 50 55 55 53 52 50 43 46 49
36 37 35 47 47 39 53 61 66 59 48 67 65 57 56 56 51 54 55 51 52 51 49 49 47 45 45 47 48 50 49 49 50 47 44 42 42 45
38 46 54 56 53 55 58 66 56 63 62 67 59 56 59 56 54 54 49 51 45 45 47 47 38 38 45 42 41 37 36 41 43 43 41 41 42 45
45 53 55 56 57 63 67 61 57 63 53 56 51 61 61 50 52 49 56 42 40 38 39 39 40 42 34 34 32 30 31 35 39 41 40 42 45 48
38 48 56 55 59 61 57 55 62 53 43 49 57 60 50 44 47 49 49 38 39 37 42 35 37 33 37 33 30 28 30 31 32 34 41 45 47 51
63 51 48 52 50 52 58 63 55 50 46 46 53 57 45 38 40 48 54 46 45 40 32 33 32 32 29 28 23 20 20 22 28 34 42 45 48 54
61 46 47 52 65 61 56 57 55 52 39 44 45 49 49 44 47 48 52 50 49 32 38 33 29 24 18 20 24 21 17 24 33 41 46 49 52 54
46 45 49 51 47 53 61 55 54 49 40 42 46 47 48 46 46 50 52 51 52 40 32 36 29 23 24 9 15 19 21 30 41 44 44 48 46 43
36 42 55 61 67 64 54 53 54 48 44 44 45 44 49 46 51 55 50 43 42 31 45 43 26 31 27 9 8 19 29 34 38 39 36 35 35 34
41 48 46 63 68 65 51 50 48 51 47 42 42 48 49 48 44 42 39 32 32 27 31 31 29 37 14 14 19 25 32 30 33 38 26 26 22 13
37 39 58 64 63 54 55 55 44 45 48 40 43 46 48 40 28 26 21 24 28 21 13 30 34 38 4 15 25 30 33 26 28 29 18 7 2 3
55 59 63 54 49 54 67 64 70 59 47 36 45 45 42 38 22 13 15 20 20 26 12 31 35 38 21 29 25 37 30 17 22 24 8 12 11 8
83 66 54 61 62 67 68 68 59 47 45 45 50 38 34 28 7 15 15 18 19 25 16 23 34 34 31 38 23 34 26 16 17 21 12 16 17 13
83 75 71 62 57 44 36 35 34 31 29 28 28 24 22 21 17 10 12 17 16 21 13 22 33 30 31 26 23 18 21 18 18 20 21 17 20 19
63 53 44 35 33 32 32 31 29 22 21 16 16 14 16 24 17 14 7 6 10 20 26 26 23 23 10 11 10 21 34 38 40 40 41 38 36 32
55 39 36 38 34 28 28 24 21 19 12 18 10 13 19 16 8 11 1 0 5 20 10 17 10 10 20 28 26 33 43 53 57 60 63 64 65 61
42 35 37 38 41 35 29 22 20 14 7 10 8 11 15 10 5 13 4 4 11 10 15 18 25 32 40 45 49 42 43 49 55 64 66 70 68 63
38 36 38 36 34 32 30 26 19 15 8 2 5 9 10 5 15 14 6 6 7 7 12 35 44 45 45 43 44 43 49 52 50 56 66 72 70 64
40 39 38 37 33 29 26 22 19 17 14 10 4 7 6 6 19 13 11 11 3 5 23 15 30 20 34 40 36 36 41 50 57 62 64 68 69 62
42 40 38 36 31 27 26 26 22 14 14 6 5 6 10 21 17 10 8 8 9 20 28 19 26 27 40 42 42 42 39 37 38 44 50 50 51 47
44 41 38 34 30 25 23 20 18 17 12 11 8 14 26 23 18 16 12 13 22 28 24 38 35 30 36 35 41 39 33 27 31 34 36 34 36 36
45 42 37 32 28 25 21 17 14 15 14 13 16 25 27 21 21 21 18 23 27 30 40 46 39 34 33 39 40 40 41 35 30 25 19 13 14 35
46 43 39 34 27 24 19 17 17 16 17 23 28 32 24 24 28 26 25 29 43 56 54 44 37 32 33 33 31 38 41 43 48 49 55 45 46 41
Wind_Direction_500mb
301 300 306 305 311 308 313 308 309 306 299 305 310 314 316 318 315 311 303 303 296 294 294 300 295 288 282 277 279 274 264 260 263 265 266 262 252 256
297 294 300 306 309 305 311 305 309 303 300 305 305 314 315 313 319 317 314 314 300 301 296 301 299 292 284 283 285 280 269 260 260 265 263 262 257 256
297 299 303 306 300 306 312 312 307 309 299 298 300 309 315 313 319 323 320 316 310 310 306 305 298 303 293 287 287 279 266 263 260 265 261 261 257 253
296 301 304 306 302 308 312 312 302 314 302 296 303 304 313 313 319 322 325 317 316 311 311 309 304 299 291 293 287 277 272 265 266 265 260 263 259 259
302 303 301 300 305 310 308 312 311 313 304 299 301 305 312 313 315 322 333 327 317 320 315 303 300 300 300 287 279 278 275 271 266 258 258 262 266 269
302 299 301 303 304 306 304 309 314 313 300 301 305 311 315 318 309 318 321 333 324 328 320 319 320 310 310 290 290 284 273 267 270 277 277 278 279 277
309 296 297 303 305 303 299 306 307 312 299 302 306 312 313 308 312 314 317 325 329 325 310 317 318 311 317 289 282 288 261 281 286 287 284 283 283 278
310 311 309 313 310 305 300 292 302 304 298 300 304 307 313 308 307 309 311 321 326 336 330 335 344 346 346 309 314 307 299 291 291 289 286 284 280 278
317 313 309 306 310 309 299 289 305 302 295 292 291 299 312 314 302 299 306 311 317 326 332 334 350 352 339 349 320 332 321 314 303 296 291 290 283 280
312 312 305 312 314 310 308 298 298 286 296 290 286 294 305 311 304 299 302 316 319 321 326 337 357 350 6 17 350 330 325 318 314 310 315 309 311 296
313 307 311 314 313 298 306 305 298 290 287 290 284 287 305 312 306 300 321 312 315 321 339 357 347 352 41 9 347 346 341 337 333 334 330 336 73 98
312 316 314 306 297 296 303 303 301 289 279 279 275 283 303 313 309 273 315 312 314 327 334 338 340 357 347 6 1 351 354 354 350 2 16 124 91 53
327 323 308 305 300 298 296 297 296 294 287 273 269 283 300 310 273 295 286 292 297 291 302 319 330 341 348 347 11 348 356 9 14 21 47 117 84 71
321 318 315 311 310 314 318 316 307 294 288 274 274 283 297 306 236 242 261 282 295 285 319 310 312 324 333 348 356 5 24 39 41 51 64 96 102 85
324 328 330 335 330 329 325 320 321 306 298 274 265 276 280 290 293 243 235 255 281 316 316 299 304 333 18 10 40 78 73 70 75 79 89 88 88 85
338 344 350 345 338 333 328 327 330 316 282 276 252 277 287 302 284 166 37 1 298 339 49 340 344 90 96 88 97 89 91 82 84 86 85 84 83 83
345 351 344 342 343 348 350 352 345 340 300 274 247 303 295 278 229 150 134 153 339 52 19 84 103 108 97 87 82 83 85 86 90 89 83 83 80 81
355 351 351 353 352 351 351 357 351 354 340 279 285 287 291 258 159 127 100 151 65 31 105 119 109 104 93 87 84 79 81 84 85 86 87 84 77 72
5 2 358 357 355 355 357 1 348 347 311 285 273 245 242 182 148 116 138 66 129 125 140 106 127 113 111 94 91 86 91 87 83 80 78 76 79 75
7 3 1 359 357 355 358 358 5 17 30 77 19 146 151 133 123 91 129 132 118 121 142 124 140 118 109 100 96 99 96 87 83 79 76 74 73 74
5 4 2 359 358 359 357 358 17 35 68 75 63 115 128 117 96 104 128 111 121 124 116 133 123 118 115 105 93 86 83 82 84 86 89 81 81 73
7 6 5 2 -0 4 10 18 42 50 72 82 102 120 122 103 104 113 93 113 124 131 125 125 119 118 116 104 93 86 72 75 81 84 84 70 102 87
12 11 10 11 17 18 31 46 66 73 89 101 112 107 108 101 106 91 103 114 127 127 123 125 125 126 120 114 107 99 89 84 84 81 75 74 80 81
Wind_Speed_850mb
32 39 41 40 50 40 51 47 53 61 54 49 44 58 55 52 56 51 59 53 56 52 57 65 59 57 51 51 49 50 55 55 53 52 50 43 46 49
36 37 35 47 47 39 53 61 66 59 48 67 65 57 56 56 51 54 55 51 52 51 49 49 47 45 45 47 48 50 49 49 50 47 44 42 42 45
38 46 54 56 53 55 58 66 56 63 62 67 59 56 59 56 54 54 49 51 45 45 47 47 38 38 45 42 41 37 36 41 43 43 41 41 42 45
45 53 55 56 57 63 67 61 57 63 53 56 51 61 61 50 52 49 56 42 40 38 39 39 40 42 34 34 32 30 31 35 39 41 40 42 45 48
38 48 56 55 59 61 57 55 62 53 43 49 57 60 50 44 47 49 49 38 39 37 42 35 37 33 37 33 30 28 30 31 32 34 41 45 47 51
63 51 48 52 50 52 58 63 55 50 46 46 53 57 45 38 40 48 54 46 45 40 32 33 32 32 29 28 23 20 20 22 28 34 42 45 48 54
61 46 47 52 65 61 56 57 55 52 39 44 45 49 49 44 47 48 52 50 49 32 38 33 29 24 18 20 24 21 17 24 33 41 46 49 52 54
46 45 49 51 47 53 61 55 54 49 40 42 46 47 48 46 46 50 52 51 52 40 32 36 29 23 24 9 15 19 21 30 41 44 44 48 46 43
36 42 55 61 67 64 54 53 54 48 44 44 45 44 49 46 51 55 50 43 42 31 45 43 26 31 27 9 8 19 29 34 38 39 36 35 35 34
41 48 46 63 68 65 51 50 48 51 47 42 42 48 49 48 44 42 39 32 32 27 31 31 29 37 14 14 19 25 32 30 33 38 26 26 22 13
37 39 58 64 63 54 55 55 44 45 48 40 43 46 48 40 28 26 21 24 28 21 13 30 34 38 4 15 25 30 33 26 28 29 18 7 2 3
55 59 63 54 49 54 67 64 70 59 47 36 45 45 42 38 22 13 15 20 20 26 12 31 35 38 21 29 25 37 30 17 22 24 8 12 11 8
83 66 54 61 62 67 68 68 59 47 45 45 50 38 34 28 7 15 15 18 19 25 16 23 34 34 31 38 23 34 26 16 17 21 12 16 17 13
83 75 71 62 57 44 36 35 34 31 29 28 28 24 22 21 17 10 12 17 16 21 13 22 33 30 31 26 23 18 21 18 18 20 21 17 20 19
63 53 44 35 33 32 32 31 29 22 21 16 16 14 16 24 17 14 7 6 10 20 26 26 23 23 10 11 10 21 34 38 40 40 41 38 36 32
55 39 36 38 34 28 28 24 21 19 12 18 10 13 19 16 8 11 1 0 5 20 10 17 10 10 20 28 26 33 43 53 57 60 63 64 65 61
42 35 37 38 41 35 29 22 20 14 7 10 8 11 15 10 5 13 4 4 11 10 15 18 25 32 40 45 49 42 43 49 55 64 66 70 68 63
38 36 38 36 34 32 30 26 19 15 8 2 5 9 10 5 15 14 6 6 7 7 12 35 44 45 45 43 44 43 49 52 50 56 66 72 70 64
40 39 38 37 33 29 26 22 19 17 14 10 4 7 6 6 19 13 11 11 3 5 23 15 30 20 34 40 36 36 41 50 57 62 64 68 69 62
42 40 38 36 31 27 26 26 22 14 14 6 5 6 10 21 17 10 8 8 9 20 28 19 26 27 40 42 42 42 39 37 38 44 50 50 51 47
44 41 38 34 30 25 23 20 18 17 12 11 8 14 26 23 18 16 12 13 22 28 24 38 35 30 36 35 41 39 33 27 31 34 36 34 36 36
45 42 37 32 28 25 21 17 14 15 14 13 16 25 27 21 21 21 18 23 27 30 40 46 39 34 33 39 40 40 41 35 30 25 19 13 14 35
46 43 39 34 27 24 19 17 17 16 17 23 28 32 24 24 28 26 25 29 43 56 54 44 37 32 33 33 31 38 41 43 48 49 55 45 46 41
Wind_Direction_850mb
301 300 306 305 311 308 313 308 309 306 299 305 310 314 316 318 315 311 303 303 296 294 294 300 295 288 282 277 279 274 264 260 263 265 266 262 252 256
297 294 300 306 309 305 311 305 309 303 300 305 305 314 315 313 319 317 314 314 300 301 296 301 299 292 284 283 285 280 269 260 260 265 263 262 257 256
297 299 303 306 300 306 312 312 307 309 299 298 300 309 315 313 319 323 320 316 310 310 306 305 298 303 293 287 287 279 266 263 260 265 261 261 257 253
296 301 304 306 302 308 312 312 302 314 302 296 303 304 313 313 319 322 325 317 316 311 311 309 304 299 291 293 287 277 272 265 266 265 260 263 259 259
302 303 301 300 305 310 308 312 311 313 304 299 301 305 312 313 315 322 333 327 317 320 315 303 300 300 300 287 279 278 275 271 266 258 258 262 266 269
302 299 301 303 304 306 304 309 314 313 300 301 305 311 315 318 309 318 321 333 324 328 320 319 320 310 310 290 290 284 273 267 270 277 277 278 279 277
309 296 297 303 305 303 299 306 307 312 299 302 306 312 313 308 312 314 317 325 329 325 310 317 318 311 317 289 282 288 261 281 286 287 284 283 283 278
310 311 309 313 310 305 300 292 302 304 298 300 304 307 313 308 307 309 311 321 326 336 330 335 344 346 346 309 314 307 299 291 291 289 286 284 280 278
317 313 309 306 310 309 299 289 305 302 295 292 291 299 312 314 302 299 306 311 317 326 332 334 350 352 339 349 320 332 321 314 303 296 291 290 283 280
312 312 305 312 314 310 308 298 298 286 296 290 286 294 305 311 304 299 302 316 319 321 326 337 357 350 6 17 350 330 325 318 314 310 315 309 311 296
313 307 311 314 313 298 306 305 298 290 287 290 284 287 305 312 306 300 321 312 315 321 339 357 347 352 41 9 347 346 341 337 333 334 330 336 73 98
312 316 314 306 297 296 303 303 301 289 279 279 275 283 303 313 309 273 315 312 314 327 334 338 340 357 347 6 1 351 354 354 350 2 16 124 91 53
327 323 308 305 300 298 296 297 296 294 287 273 269 283 300 310 273 295 286 292 297 291 302 319 330 341 348 347 11 348 356 9 14 21 47 117 84 71
321 318 315 311 310 314 318 316 307 294 288 274 274 283 297 306 236 242 261 282 295 285 319 310 312 324 333 348 356 5 24 39 41 51 64 96 102 85
324 328 330 335 330 329 325 320 321 306 298 274 265 276 280 290 293 243 235 255 281 316 316 299 304 333 18 10 40 78 73 70 75 79 89 88 88 85
338 344 350 345 338 333 328 327 330 316 282 276 252 277 287 302 284 166 37 1 298 339 49 340 344 90 96 88 97 89 91 82 84 86 85 84 83 83
345 351 344 342 343 348 350 352 345 340 300 274 247 303 295 278 229 150 134 153 339 52 19 84 103 108 97 87 82 83 85 86 90 89 83 83 80 81
355 351 351 353 352 351 351 357 351 354 340 279 285 287 291 258 159 127 100 151 65 31 105 119 109 104 93 87 84 79 81 84 85 86 87 84 77 72
5 2 358 357 355 355 357 1 348 347 311 285 273 245 242 182 148 116 138 66 129 125 140 106 127 113 111 94 91 86 91 87 83 80 78 76 79 75
7 3 1 359 357 355 358 358 5 17 30 77 19 146 151 133 123 91 129 132 118 121 142 124 140 118 109 100 96 99 96 87 83 79 76 74 73 74
5 4 2 359 358 359 357 358 17 35 68 75 63 115 128 117 96 104 128 111 121 124 116 133 123 118 115 105 93 86 83 82 84 86 89 81 81 73
7 6 5 2 -0 4 10 18 42 50 72 82 102 120 122 103 104 113 93 113 124 131 125 125 119 118 116 104 93 86 72 75 81 84 84 70 102 87
12 11 10 11 17 18 31 46 66 73 89 101 112 107 108 101 106 91 103 114 127 127 123 125 125 126 120 114 107 99 89 84 84 81 75 74 80 81